Time,TemperatureF,DewpointF,PressureIn,WindDirection,WindDirectionDegrees,WindSpeedMPH,WindSpeedGustMPH,Humidity,HourlyPrecipIn,Conditions,Clouds,dailyrainin,SolarRadiationWatts/m^2,SoftwareType,DateUTC
2013-03-04 00:01:00,47.4,44.6,29.97,NW,323,0.0,0.0,90,0.00,,,0.00,0000,Weather View 32 v70,2013-03-04 08:01:00,
2013-03-04 00:06:00,47.3,44.5,29.97,NW,324,0.0,0.0,90,0.00,,,0.00,0000,Weather View 32 v70,2013-03-04 08:06:00,
2013-03-04 00:11:00,47.2,44.1,29.98,NW,323,0.0,1.0,89,0.00,,,0.00,0000,Weather View 32 v70,2013-03-04 08:11:00,
2013-03-04 00:16:00,47.1,44.3,29.98,NW,324,0.0,1.0,90,0.00,,,0.00,0000,Weather View 32 v70,2013-03-04 08:16:00,
2013-03-04 00:21:00,47.0,44.2,29.98,NW,324,0.0,1.0,90,0.00,,,0.00,0000,Weather View 32 v70,2013-03-04 08:21:00,
2013-03-04 00:26:00,47.1,44.3,29.97,NW,323,0.0,1.0,90,0.00,,,0.00,0000,Weather View 32 v70,2013-03-04 08:26:00,
2013-03-04 00:31:00,47.0,44.2,29.97,NW,323,0.0,1.0,90,0.00,,,0.00,0000,Weather View 32 v70,2013-03-04 08:31:00,
2013-03-04 00:36:00,46.8,43.7,29.98,NW,324,0.0,1.0,89,0.00,,,0.00,0000,Weather View 32 v70,2013-03-04 08:36:00,
2013-03-04 00:41:00,46.6,43.5,29.98,NW,324,0.0,1.0,89,0.00,,,0.00,0000,Weather View 32 v70,2013-03-04 08:41:00,
2013-03-04 00:46:00,46.5,43.4,29.98,NW,324,0.0,1.0,89,0.00,,,0.00,0000,Weather View 32 v70,2013-03-04 08:46:00,
2013-03-04 00:51:00,46.7,43.9,29.98,NW,323,0.0,1.0,90,0.00,,,0.00,0000,Weather View 32 v70,2013-03-04 08:51:00,
2013-03-04 00:56:00,46.7,43.6,29.99,NW,323,0.0,1.0,89,0.00,,,0.00,0000,Weather View 32 v70,2013-03-04 08:56:00,
2013-03-04 01:01:00,46.4,43.3,29.99,NW,324,0.0,1.0,89,0.00,,,0.00,0000,Weather View 32 v70,2013-03-04 09:01:00,
2013-03-04 01:06:00,46.6,43.8,29.99,NW,324,0.0,1.0,90,0.00,,,0.00,0000,Weather View 32 v70,2013-03-04 09:06:00,
2013-03-04 01:11:00,46.0,42.9,29.99,NW,324,0.0,1.0,89,0.00,,,0.00,0000,Weather View 32 v70,2013-03-04 09:11:00,
2013-03-04 01:16:00,45.6,42.5,30.00,NW,324,0.0,1.0,89,0.00,,,0.00,0000,Weather View 32 v70,2013-03-04 09:16:00,
2013-03-04 01:21:00,45.2,42.1,29.99,NW,324,0.0,1.0,89,0.00,,,0.00,0000,Weather View 32 v70,2013-03-04 09:21:00,
2013-03-04 01:26:00,45.4,42.6,29.99,NW,323,0.0,1.0,90,0.00,,,0.00,0000,Weather View 32 v70,2013-03-04 09:26:00,
2013-03-04 01:31:00,45.8,43.0,29.99,NW,324,0.0,1.0,90,0.00,,,0.00,0000,Weather View 32 v70,2013-03-04 09:31:00,
2013-03-04 01:36:00,46.5,44.0,29.99,NW,324,0.0,1.0,91,0.00,,,0.00,0000,Weather View 32 v70,2013-03-04 09:36:00,
2013-03-04 01:41:00,47.3,44.8,29.99,NW,324,0.0,1.0,91,0.00,,,0.00,0000,Weather View 32 v70,2013-03-04 09:41:00,
2013-03-04 01:46:00,48.0,45.5,29.99,NW,324,0.0,1.0,91,0.00,,,0.00,0000,Weather View 32 v70,2013-03-04 09:46:00,
2013-03-04 01:51:00,47.3,43.9,30.00,NW,324,0.0,1.0,88,0.00,,,0.00,0000,Weather View 32 v70,2013-03-04 09:51:00,
2013-03-04 01:56:00,46.3,42.9,30.00,NW,324,0.0,1.0,88,0.00,,,0.00,0000,Weather View 32 v70,2013-03-04 09:56:00,
2013-03-04 02:01:00,46.0,42.9,30.00,NW,323,0.0,1.0,89,0.00,,,0.00,0000,Weather View 32 v70,2013-03-04 10:01:00,
2013-03-04 02:06:00,46.2,43.1,30.00,NW,323,0.0,1.0,89,0.00,,,0.00,0000,Weather View 32 v70,2013-03-04 10:06:00,
2013-03-04 02:11:00,46.3,43.2,29.99,NW,324,1.0,1.0,89,0.00,,,0.00,0000,Weather View 32 v70,2013-03-04 10:11:00,
2013-03-04 02:16:00,46.0,42.9,29.99,NW,324,0.0,1.0,89,0.00,,,0.00,0000,Weather View 32 v70,2013-03-04 10:16:00,
2013-03-04 02:21:00,45.8,42.7,29.99,NW,323,0.0,1.0,89,0.00,,,0.00,0000,Weather View 32 v70,2013-03-04 10:21:00,
2013-03-04 02:26:00,45.8,42.7,29.99,NW,324,0.0,1.0,89,0.00,,,0.00,0000,Weather View 32 v70,2013-03-04 10:26:00,
2013-03-04 02:31:00,45.9,43.1,29.99,NW,324,0.0,1.0,90,0.00,,,0.00,0000,Weather View 32 v70,2013-03-04 10:31:00,
2013-03-04 02:36:00,46.0,43.2,29.99,NW,323,0.0,1.0,90,0.00,,,0.00,0000,Weather View 32 v70,2013-03-04 10:36:00,
2013-03-04 02:41:00,46.6,43.8,29.99,NW,323,0.0,1.0,90,0.00,,,0.00,0000,Weather View 32 v70,2013-03-04 10:41:00,
2013-03-04 02:46:00,46.9,44.1,29.99,NW,324,0.0,1.0,90,0.00,,,0.00,0000,Weather View 32 v70,2013-03-04 10:46:00,
2013-03-04 02:51:00,46.4,43.3,29.99,NW,324,0.0,1.0,89,0.00,,,0.00,0000,Weather View 32 v70,2013-03-04 10:51:00,
2013-03-04 02:56:00,45.6,42.2,30.00,NW,324,0.0,1.0,88,0.00,,,0.00,0000,Weather View 32 v70,2013-03-04 10:56:00,
2013-03-04 03:01:00,44.5,41.2,30.00,NW,323,0.0,1.0,88,0.00,,,0.00,0000,Weather View 32 v70,2013-03-04 11:01:00,
2013-03-04 03:06:00,44.0,41.0,30.00,NW,324,0.0,1.0,89,0.00,,,0.00,0000,Weather View 32 v70,2013-03-04 11:06:00,
2013-03-04 03:11:00,43.7,40.7,29.99,NW,324,0.0,1.0,89,0.00,,,0.00,0000,Weather View 32 v70,2013-03-04 11:11:00,
2013-03-04 03:16:00,44.0,41.3,30.00,NW,323,0.0,1.0,90,0.00,,,0.00,0000,Weather View 32 v70,2013-03-04 11:16:00,
2013-03-04 03:21:00,44.2,41.4,30.00,NW,323,0.0,1.0,90,0.00,,,0.00,0000,Weather View 32 v70,2013-03-04 11:21:00,
2013-03-04 03:26:00,43.9,41.2,30.00,NW,324,0.0,1.0,90,0.00,,,0.00,0000,Weather View 32 v70,2013-03-04 11:26:00,
2013-03-04 03:31:00,43.5,40.8,30.00,NW,324,0.0,1.0,90,0.00,,,0.00,0000,Weather View 32 v70,2013-03-04 11:31:00,
2013-03-04 03:36:00,43.7,41.0,30.00,NW,323,0.0,1.0,90,0.00,,,0.00,0000,Weather View 32 v70,2013-03-04 11:36:00,
2013-03-04 03:41:00,44.3,41.8,30.00,NW,324,0.0,1.0,91,0.00,,,0.00,0000,Weather View 32 v70,2013-03-04 11:41:00,
2013-03-04 03:46:00,45.0,42.5,30.00,NW,324,0.0,1.0,91,0.00,,,0.00,0000,Weather View 32 v70,2013-03-04 11:46:00,
2013-03-04 03:51:00,45.0,42.5,30.00,NW,323,0.0,1.0,91,0.00,,,0.00,0000,Weather View 32 v70,2013-03-04 11:51:00,
2013-03-04 03:56:00,44.9,42.4,30.00,NW,323,0.0,1.0,91,0.00,,,0.00,0000,Weather View 32 v70,2013-03-04 11:56:00,
2013-03-04 04:01:00,44.5,42.0,30.00,NW,324,0.0,1.0,91,0.00,,,0.00,0000,Weather View 32 v70,2013-03-04 12:01:00,
2013-03-04 04:06:00,44.9,42.4,30.00,NW,324,0.0,1.0,91,0.00,,,0.00,0000,Weather View 32 v70,2013-03-04 12:06:00,
2013-03-04 04:11:00,45.3,42.8,30.00,NW,324,0.0,1.0,91,0.00,,,0.00,0000,Weather View 32 v70,2013-03-04 12:11:00,
2013-03-04 04:16:00,45.5,43.0,30.00,NW,324,0.0,1.0,91,0.00,,,0.00,0000,Weather View 32 v70,2013-03-04 12:16:00,
2013-03-04 04:21:00,45.7,42.9,30.00,NW,323,0.0,1.0,90,0.00,,,0.00,0000,Weather View 32 v70,2013-03-04 12:21:00,
2013-03-04 04:26:00,45.8,43.0,30.00,NW,324,0.0,1.0,90,0.00,,,0.00,0000,Weather View 32 v70,2013-03-04 12:26:00,
2013-03-04 04:31:00,45.8,43.0,30.00,NW,324,0.0,1.0,90,0.00,,,0.00,0000,Weather View 32 v70,2013-03-04 12:31:00,
2013-03-04 04:36:00,45.9,43.1,30.00,NW,324,0.0,1.0,90,0.00,,,0.00,0000,Weather View 32 v70,2013-03-04 12:36:00,
2013-03-04 04:41:00,46.0,43.2,30.00,NW,323,0.0,1.0,90,0.00,,,0.00,0000,Weather View 32 v70,2013-03-04 12:41:00,
2013-03-04 04:46:00,46.7,43.6,29.99,NW,324,0.0,1.0,89,0.00,,,0.00,0000,Weather View 32 v70,2013-03-04 12:46:00,
2013-03-04 04:51:00,46.6,43.2,30.00,NW,323,0.0,1.0,88,0.00,,,0.00,0000,Weather View 32 v70,2013-03-04 12:51:00,
2013-03-04 04:56:00,46.9,43.2,30.00,NW,324,0.0,1.0,87,0.00,,,0.00,0000,Weather View 32 v70,2013-03-04 12:56:00,
2013-03-04 05:01:00,46.9,42.9,30.00,NW,324,0.0,1.0,86,0.00,,,0.00,0000,Weather View 32 v70,2013-03-04 13:01:00,
2013-03-04 05:06:00,47.1,43.1,30.00,NW,323,0.0,1.0,86,0.00,,,0.00,0000,Weather View 32 v70,2013-03-04 13:06:00,
2013-03-04 05:11:00,47.2,42.9,30.01,NW,323,0.0,1.0,85,0.00,,,0.00,0000,Weather View 32 v70,2013-03-04 13:11:00,
2013-03-04 05:16:00,46.5,42.2,30.01,NW,324,0.0,1.0,85,0.00,,,0.00,0000,Weather View 32 v70,2013-03-04 13:16:00,
2013-03-04 05:21:00,45.9,41.6,30.01,NW,324,0.0,1.0,85,0.00,,,0.00,0000,Weather View 32 v70,2013-03-04 13:21:00,
2013-03-04 05:26:00,45.7,41.7,30.01,NW,324,0.0,1.0,86,0.00,,,0.00,0000,Weather View 32 v70,2013-03-04 13:26:00,
2013-03-04 05:31:00,45.3,41.4,30.01,NW,324,0.0,1.0,86,0.00,,,0.00,0000,Weather View 32 v70,2013-03-04 13:31:00,
2013-03-04 05:36:00,44.8,40.9,30.01,NW,324,0.0,1.0,86,0.00,,,0.00,0000,Weather View 32 v70,2013-03-04 13:36:00,
2013-03-04 05:41:00,43.6,40.0,30.01,NW,323,0.0,1.0,87,0.00,,,0.00,0000,Weather View 32 v70,2013-03-04 13:41:00,
2013-03-04 05:46:00,43.8,40.5,30.02,NW,323,0.0,1.0,88,0.00,,,0.00,0000,Weather View 32 v70,2013-03-04 13:46:00,
2013-03-04 05:51:00,44.0,41.0,30.02,NW,324,0.0,1.0,89,0.00,,,0.00,0000,Weather View 32 v70,2013-03-04 13:51:00,
2013-03-04 05:56:00,44.1,41.1,30.02,NW,324,0.0,1.0,89,0.00,,,0.00,0000,Weather View 32 v70,2013-03-04 13:56:00,
2013-03-04 06:01:00,44.3,41.3,30.02,NW,324,0.0,1.0,89,0.00,,,0.00,0000,Weather View 32 v70,2013-03-04 14:01:00,
2013-03-04 06:06:00,44.6,41.6,30.02,NW,323,0.0,1.0,89,0.00,,,0.00,0000,Weather View 32 v70,2013-03-04 14:06:00,
2013-03-04 06:11:00,45.0,41.9,30.02,NW,323,0.0,1.0,89,0.00,,,0.00,0000,Weather View 32 v70,2013-03-04 14:11:00,
2013-03-04 06:16:00,45.1,41.8,30.02,NW,324,0.0,1.0,88,0.00,,,0.00,0000,Weather View 32 v70,2013-03-04 14:16:00,
2013-03-04 06:21:00,44.0,40.4,30.03,NW,324,0.0,1.0,87,0.00,,,0.00,0005,Weather View 32 v70,2013-03-04 14:21:00,
2013-03-04 06:26:00,42.6,39.0,30.03,NW,323,0.0,1.0,87,0.00,,,0.00,0007,Weather View 32 v70,2013-03-04 14:26:00,
2013-03-04 06:31:00,42.0,38.7,30.03,NW,324,0.0,1.0,88,0.00,,,0.00,0011,Weather View 32 v70,2013-03-04 14:31:00,
2013-03-04 06:36:00,41.9,38.9,30.03,NW,324,0.0,1.0,89,0.00,,,0.00,0014,Weather View 32 v70,2013-03-04 14:36:00,
2013-03-04 06:41:00,42.1,39.4,30.02,NW,323,0.0,1.0,90,0.00,,,0.00,0021,Weather View 32 v70,2013-03-04 14:41:00,
2013-03-04 06:46:00,42.9,40.2,30.03,NW,324,0.0,1.0,90,0.00,,,0.00,0025,Weather View 32 v70,2013-03-04 14:46:00,
2013-03-04 06:51:00,43.6,40.9,30.03,NW,324,0.0,1.0,90,0.00,,,0.00,0033,Weather View 32 v70,2013-03-04 14:51:00,
2013-03-04 06:56:00,44.1,41.4,30.04,NW,324,0.0,1.0,90,0.00,,,0.00,0044,Weather View 32 v70,2013-03-04 14:56:00,
2013-03-04 07:01:00,44.1,41.1,30.04,NW,324,0.0,1.0,89,0.00,,,0.00,0060,Weather View 32 v70,2013-03-04 15:01:00,
2013-03-04 07:06:00,44.3,41.3,30.04,NW,323,0.0,1.0,89,0.00,,,0.00,0074,Weather View 32 v70,2013-03-04 15:06:00,
2013-03-04 07:11:00,44.5,41.5,30.05,NW,323,0.0,1.0,89,0.00,,,0.00,0084,Weather View 32 v70,2013-03-04 15:11:00,
2013-03-04 07:16:00,45.8,42.4,30.05,NW,324,0.0,1.0,88,0.00,,,0.00,0090,Weather View 32 v70,2013-03-04 15:16:00,
2013-03-04 07:22:00,47.0,43.3,30.05,NW,324,0.0,1.0,87,0.00,,,0.00,0118,Weather View 32 v70,2013-03-04 15:22:00,
2013-03-04 07:27:00,47.9,43.9,30.05,NW,323,0.0,1.0,86,0.00,,,0.00,0135,Weather View 32 v70,2013-03-04 15:27:00,
2013-03-04 07:32:00,48.6,43.7,30.05,NW,324,0.0,1.0,83,0.00,,,0.00,0155,Weather View 32 v70,2013-03-04 15:32:00,
2013-03-04 07:37:00,48.9,43.6,30.05,NW,324,0.0,1.0,82,0.00,,,0.00,0123,Weather View 32 v70,2013-03-04 15:37:00,
2013-03-04 07:42:00,49.2,44.2,30.05,NW,323,0.0,1.0,83,0.00,,,0.00,0171,Weather View 32 v70,2013-03-04 15:42:00,
2013-03-04 07:47:00,49.0,43.7,30.05,NW,324,0.0,1.0,82,0.00,,,0.00,0213,Weather View 32 v70,2013-03-04 15:47:00,
2013-03-04 07:52:00,49.4,43.8,30.05,NW,324,0.0,1.0,81,0.00,,,0.00,0229,Weather View 32 v70,2013-03-04 15:52:00,
2013-03-04 07:57:00,49.8,43.9,30.05,NW,324,0.0,1.0,80,0.00,,,0.00,0246,Weather View 32 v70,2013-03-04 15:57:00,
2013-03-04 08:02:00,50.9,44.3,30.05,NW,324,0.0,1.0,78,0.00,,,0.00,0167,Weather View 32 v70,2013-03-04 16:02:00,
2013-03-04 08:07:00,51.3,44.7,30.05,NW,324,0.0,1.0,78,0.00,,,0.00,0206,Weather View 32 v70,2013-03-04 16:07:00,
2013-03-04 08:12:00,52.0,45.3,30.05,NW,323,0.0,1.0,78,0.00,,,0.00,0297,Weather View 32 v70,2013-03-04 16:12:00,
2013-03-04 08:17:00,53.2,45.5,30.05,NW,323,0.0,1.0,75,0.00,,,0.00,0316,Weather View 32 v70,2013-03-04 16:17:00,
2013-03-04 08:22:00,53.7,45.9,30.05,NW,323,0.0,1.0,75,0.00,,,0.00,0345,Weather View 32 v70,2013-03-04 16:22:00,
2013-03-04 08:27:00,54.5,46.7,30.05,NW,324,0.0,1.0,75,0.00,,,0.00,0364,Weather View 32 v70,2013-03-04 16:27:00,
2013-03-04 08:32:00,54.7,46.9,30.04,NW,323,0.0,1.0,75,0.00,,,0.00,0381,Weather View 32 v70,2013-03-04 16:32:00,
2013-03-04 08:37:00,55.0,46.8,30.05,NW,322,0.0,1.0,74,0.00,,,0.00,0399,Weather View 32 v70,2013-03-04 16:37:00,
2013-03-04 08:42:00,56.0,47.4,30.04,NW,323,0.0,1.0,73,0.00,,,0.00,0415,Weather View 32 v70,2013-03-04 16:42:00,
2013-03-04 08:47:00,56.3,47.7,30.05,WNW,295,1.0,2.0,73,0.00,,,0.00,0431,Weather View 32 v70,2013-03-04 16:47:00,
2013-03-04 08:52:00,56.4,47.5,30.05,WNW,293,0.0,4.0,72,0.00,,,0.00,0448,Weather View 32 v70,2013-03-04 16:52:00,
2013-03-04 08:57:00,55.9,47.4,30.05,WNW,292,0.0,4.0,73,0.00,,,0.00,0462,Weather View 32 v70,2013-03-04 16:57:00,
2013-03-04 09:02:00,56.8,47.5,30.06,WNW,293,0.0,4.0,71,0.00,,,0.00,0480,Weather View 32 v70,2013-03-04 17:02:00,
2013-03-04 09:07:00,57.5,48.5,30.06,WNW,292,0.0,4.0,72,0.00,,,0.00,0494,Weather View 32 v70,2013-03-04 17:07:00,
2013-03-04 09:12:00,57.4,48.4,30.06,WNW,286,0.0,5.0,72,0.00,,,0.00,0512,Weather View 32 v70,2013-03-04 17:12:00,
2013-03-04 09:17:00,57.2,47.9,30.06,WNW,286,0.0,5.0,71,0.00,,,0.00,0526,Weather View 32 v70,2013-03-04 17:17:00,
2013-03-04 09:22:00,57.9,48.9,30.06,WNW,286,0.0,5.0,72,0.00,,,0.00,0541,Weather View 32 v70,2013-03-04 17:22:00,
2013-03-04 09:27:00,57.6,47.9,30.06,WNW,286,1.0,5.0,70,0.00,,,0.00,0557,Weather View 32 v70,2013-03-04 17:27:00,
2013-03-04 09:32:00,58.5,48.0,30.06,WNW,283,0.0,5.0,68,0.00,,,0.00,0571,Weather View 32 v70,2013-03-04 17:32:00,
2013-03-04 09:37:00,60.2,49.2,30.06,WNW,283,0.0,5.0,67,0.00,,,0.00,0584,Weather View 32 v70,2013-03-04 17:37:00,
2013-03-04 09:42:00,59.7,48.7,30.06,NNW,329,0.0,5.0,67,0.00,,,0.00,0596,Weather View 32 v70,2013-03-04 17:42:00,
2013-03-04 09:47:00,59.9,47.7,30.06,NNW,336,0.0,5.0,64,0.00,,,0.00,0610,Weather View 32 v70,2013-03-04 17:47:00,
2013-03-04 09:53:00,59.8,47.6,30.06,NNW,329,0.0,5.0,64,0.00,,,0.00,0624,Weather View 32 v70,2013-03-04 17:53:00,
2013-03-04 09:58:00,61.7,47.6,30.06,NNW,329,0.0,5.0,60,0.00,,,0.00,0638,Weather View 32 v70,2013-03-04 17:58:00,
2013-03-04 10:03:00,63.0,48.4,30.06,NNW,331,0.0,5.0,59,0.00,,,0.00,0645,Weather View 32 v70,2013-03-04 18:03:00,
2013-03-04 10:08:00,63.2,48.1,30.06,NNW,331,0.0,5.0,58,0.00,,,0.00,0657,Weather View 32 v70,2013-03-04 18:08:00,
2013-03-04 10:13:00,63.3,48.2,30.06,NW,311,2.0,4.0,58,0.00,,,0.00,0670,Weather View 32 v70,2013-03-04 18:13:00,
2013-03-04 10:18:00,63.8,49.1,30.05,NW,310,0.0,4.0,59,0.00,,,0.00,0679,Weather View 32 v70,2013-03-04 18:18:00,
2013-03-04 10:23:00,64.6,49.0,30.05,West,280,0.0,5.0,57,0.00,,,0.00,0687,Weather View 32 v70,2013-03-04 18:23:00,
2013-03-04 10:28:00,65.1,50.8,30.06,NW,309,0.0,5.0,60,0.00,,,0.00,0694,Weather View 32 v70,2013-03-04 18:28:00,
2013-03-04 10:29:00,65.3,50.6,30.06,NW,309,1.0,5.0,59,0.00,,,0.00,0696,Weather View 32 v70,2013-03-04 18:29:00,
2013-03-04 10:30:00,65.4,50.7,30.06,NW,309,0.0,5.0,59,0.00,,,0.00,0701,Weather View 32 v70,2013-03-04 18:30:00,
2013-03-04 10:35:00,65.7,51.4,30.05,WNW,302,1.0,5.0,60,0.00,,,0.00,0708,Weather View 32 v70,2013-03-04 18:35:00,
2013-03-04 10:40:00,66.0,50.8,30.05,NW,322,0.0,5.0,58,0.00,,,0.00,0712,Weather View 32 v70,2013-03-04 18:40:00,
2013-03-04 10:45:00,66.1,50.4,30.05,West,281,0.0,5.0,57,0.00,,,0.00,0726,Weather View 32 v70,2013-03-04 18:45:00,
2013-03-04 10:50:00,65.2,50.5,30.06,WSW,256,0.0,5.0,59,0.00,,,0.00,0733,Weather View 32 v70,2013-03-04 18:50:00,
2013-03-04 10:55:00,65.9,50.7,30.06,SW,236,0.0,5.0,58,0.00,,,0.00,0733,Weather View 32 v70,2013-03-04 18:55:00,
2013-03-04 11:00:00,66.6,51.3,30.06,WNW,292,0.0,5.0,58,0.00,,,0.00,0731,Weather View 32 v70,2013-03-04 19:00:00,
2013-03-04 11:05:00,67.2,50.9,30.06,NW,306,0.0,5.0,56,0.00,,,0.00,0747,Weather View 32 v70,2013-03-04 19:05:00,
2013-03-04 11:10:00,67.0,48.7,30.06,West,276,0.0,5.0,52,0.00,,,0.00,0758,Weather View 32 v70,2013-03-04 19:10:00,
2013-03-04 11:15:00,66.6,48.4,30.06,NNW,328,1.0,5.0,52,0.00,,,0.00,0689,Weather View 32 v70,2013-03-04 19:15:00,
2013-03-04 11:20:00,66.6,47.3,30.06,WNW,290,0.0,5.0,50,0.00,,,0.00,0744,Weather View 32 v70,2013-03-04 19:20:00,
2013-03-04 11:25:00,66.7,46.9,30.06,WNW,292,1.0,5.0,49,0.00,,,0.00,0782,Weather View 32 v70,2013-03-04 19:25:00,
2013-03-04 11:30:00,67.3,47.4,30.06,NW,305,0.0,5.0,49,0.00,,,0.00,0788,Weather View 32 v70,2013-03-04 19:30:00,
2013-03-04 11:35:00,68.2,48.3,30.06,WNW,292,0.0,5.0,49,0.00,,,0.00,0584,Weather View 32 v70,2013-03-04 19:35:00,
2013-03-04 11:40:00,67.4,48.1,30.06,WNW,300,0.0,5.0,50,0.00,,,0.00,0568,Weather View 32 v70,2013-03-04 19:40:00,
2013-03-04 11:45:00,68.8,47.7,30.06,NW,309,0.0,5.0,47,0.00,,,0.00,0752,Weather View 32 v70,2013-03-04 19:45:00,
2013-03-04 11:50:00,67.9,47.4,30.05,West,269,0.0,7.0,48,0.00,,,0.00,0617,Weather View 32 v70,2013-03-04 19:50:00,
2013-03-04 11:55:00,67.9,45.7,30.05,WNW,292,0.0,7.0,45,0.00,,,0.00,0612,Weather View 32 v70,2013-03-04 19:55:00,
2013-03-04 12:00:00,68.1,46.5,30.05,West,264,0.0,7.0,46,0.00,,,0.00,0800,Weather View 32 v70,2013-03-04 20:00:00,
2013-03-04 12:05:00,67.4,46.4,30.05,West,266,0.0,7.0,47,0.00,,,0.00,0689,Weather View 32 v70,2013-03-04 20:05:00,
2013-03-04 12:10:00,67.4,46.4,30.04,WNW,291,0.0,7.0,47,0.00,,,0.00,0701,Weather View 32 v70,2013-03-04 20:10:00,
2013-03-04 12:15:00,69.1,47.4,30.04,NW,309,0.0,7.0,46,0.00,,,0.00,0742,Weather View 32 v70,2013-03-04 20:15:00,
2013-03-04 12:20:00,69.4,46.5,30.04,West,277,0.0,7.0,44,0.00,,,0.00,0111,Weather View 32 v70,2013-03-04 20:20:00,
2013-03-04 12:25:00,70.1,47.1,30.03,NW,312,0.0,7.0,44,0.00,,,0.00,0306,Weather View 32 v70,2013-03-04 20:25:00,
2013-03-04 12:30:00,69.2,46.9,30.03,NW,310,0.0,7.0,45,0.00,,,0.00,0696,Weather View 32 v70,2013-03-04 20:30:00,
2013-03-04 12:35:00,68.2,47.7,30.03,West,280,0.0,7.0,48,0.00,,,0.00,0696,Weather View 32 v70,2013-03-04 20:35:00,
2013-03-04 12:40:00,69.8,48.0,30.02,WNW,288,0.0,7.0,46,0.00,,,0.00,0788,Weather View 32 v70,2013-03-04 20:40:00,
2013-03-04 12:45:00,70.2,47.2,30.02,NNW,337,0.0,7.0,44,0.00,,,0.00,0770,Weather View 32 v70,2013-03-04 20:45:00,
2013-03-04 12:50:00,69.1,46.8,30.01,North,360,0.0,6.0,45,0.00,,,0.00,0279,Weather View 32 v70,2013-03-04 20:50:00,
2013-03-04 12:55:00,69.6,47.3,30.01,NNW,329,4.0,6.0,45,0.00,,,0.00,0789,Weather View 32 v70,2013-03-04 20:55:00,
2013-03-04 13:00:00,70.2,46.6,30.01,West,264,2.0,7.0,43,0.00,,,0.00,0777,Weather View 32 v70,2013-03-04 21:00:00,
2013-03-04 13:05:00,69.1,47.4,30.01,West,269,1.0,8.0,46,0.00,,,0.00,0780,Weather View 32 v70,2013-03-04 21:05:00,
2013-03-04 13:10:00,70.1,47.7,30.01,WNW,292,0.0,8.0,45,0.00,,,0.00,0775,Weather View 32 v70,2013-03-04 21:10:00,
2013-03-04 13:15:00,70.5,47.5,30.01,NNW,336,0.0,8.0,44,0.00,,,0.00,0763,Weather View 32 v70,2013-03-04 21:15:00,
2013-03-04 13:20:00,70.2,49.0,30.01,West,273,0.0,8.0,47,0.00,,,0.00,0722,Weather View 32 v70,2013-03-04 21:20:00,
2013-03-04 13:25:00,71.0,48.5,30.00,West,269,0.0,8.0,45,0.00,,,0.00,0752,Weather View 32 v70,2013-03-04 21:25:00,
2013-03-04 13:30:00,70.6,48.2,30.01,West,271,1.0,8.0,45,0.00,,,0.00,0744,Weather View 32 v70,2013-03-04 21:30:00,
2013-03-04 13:35:00,68.9,48.3,30.01,WSW,241,0.0,8.0,48,0.00,,,0.00,0737,Weather View 32 v70,2013-03-04 21:35:00,
2013-03-04 13:40:00,69.5,49.4,30.01,NW,311,0.0,8.0,49,0.00,,,0.00,0555,Weather View 32 v70,2013-03-04 21:40:00,
2013-03-04 13:45:00,69.7,49.6,30.00,WNW,290,0.0,8.0,49,0.00,,,0.00,0325,Weather View 32 v70,2013-03-04 21:45:00,
2013-03-04 13:50:00,69.2,50.3,30.00,WNW,294,1.0,8.0,51,0.00,,,0.00,0515,Weather View 32 v70,2013-03-04 21:50:00,
2013-03-04 13:55:00,68.6,49.7,30.00,West,259,0.0,8.0,51,0.00,,,0.00,0186,Weather View 32 v70,2013-03-04 21:55:00,
2013-03-04 14:00:00,68.8,49.9,30.00,WNW,303,0.0,8.0,51,0.00,,,0.00,0594,Weather View 32 v70,2013-03-04 22:00:00,
2013-03-04 14:05:00,69.6,50.1,30.00,NNW,340,5.0,7.0,50,0.00,,,0.00,0155,Weather View 32 v70,2013-03-04 22:05:00,
2013-03-04 14:10:00,69.6,50.1,30.00,NW,317,0.0,7.0,50,0.00,,,0.00,0652,Weather View 32 v70,2013-03-04 22:10:00,
2013-03-04 14:15:00,69.5,50.0,30.00,WNW,294,0.0,7.0,50,0.00,,,0.00,0439,Weather View 32 v70,2013-03-04 22:15:00,
2013-03-04 14:20:00,69.3,50.3,30.00,NW,311,0.0,6.0,51,0.00,,,0.00,0309,Weather View 32 v70,2013-03-04 22:20:00,
2013-03-04 14:25:00,68.7,49.3,30.00,West,276,0.0,6.0,50,0.00,,,0.00,0501,Weather View 32 v70,2013-03-04 22:25:00,
2013-03-04 14:30:00,68.9,50.0,29.99,WNW,292,0.0,6.0,51,0.00,,,0.00,0613,Weather View 32 v70,2013-03-04 22:30:00,
2013-03-04 14:35:00,69.2,49.7,29.99,NNW,338,0.0,6.0,50,0.00,,,0.00,0592,Weather View 32 v70,2013-03-04 22:35:00,
2013-03-04 14:40:00,69.4,49.9,29.99,NNW,334,0.0,6.0,50,0.00,,,0.00,0207,Weather View 32 v70,2013-03-04 22:40:00,
2013-03-04 14:45:00,69.4,49.4,30.00,NNW,329,0.0,6.0,49,0.00,,,0.00,0497,Weather View 32 v70,2013-03-04 22:45:00,
2013-03-04 14:50:00,69.2,49.7,30.00,WNW,290,1.0,6.0,50,0.00,,,0.00,0564,Weather View 32 v70,2013-03-04 22:50:00,
2013-03-04 14:55:00,69.1,49.6,30.00,West,271,0.0,6.0,50,0.00,,,0.00,0408,Weather View 32 v70,2013-03-04 22:55:00,
2013-03-04 15:00:00,69.3,49.3,30.00,West,278,0.0,6.0,49,0.00,,,0.00,0538,Weather View 32 v70,2013-03-04 23:00:00,
2013-03-04 15:05:00,69.2,49.2,30.00,NNW,336,0.0,6.0,49,0.00,,,0.00,0327,Weather View 32 v70,2013-03-04 23:05:00,
2013-03-04 15:10:00,69.3,49.3,30.00,NNW,336,1.0,5.0,49,0.00,,,0.00,0214,Weather View 32 v70,2013-03-04 23:10:00,
2013-03-04 15:15:00,68.6,48.6,30.00,NW,304,0.0,5.0,49,0.00,,,0.00,0497,Weather View 32 v70,2013-03-04 23:15:00,
2013-03-04 15:20:00,68.9,48.9,29.99,WNW,300,0.0,5.0,49,0.00,,,0.00,0388,Weather View 32 v70,2013-03-04 23:20:00,
2013-03-04 15:25:00,68.6,48.6,29.99,WNW,294,0.0,5.0,49,0.00,,,0.00,0473,Weather View 32 v70,2013-03-04 23:25:00,
2013-03-04 15:30:00,68.8,48.8,29.99,NNW,329,0.0,5.0,49,0.00,,,0.00,0455,Weather View 32 v70,2013-03-04 23:30:00,
2013-03-04 15:35:00,68.6,48.1,29.99,NW,326,1.0,5.0,48,0.00,,,0.00,0415,Weather View 32 v70,2013-03-04 23:35:00,
2013-03-04 15:40:00,68.7,48.7,29.99,NNW,327,0.0,5.0,49,0.00,,,0.00,0424,Weather View 32 v70,2013-03-04 23:40:00,
2013-03-04 15:45:00,68.9,48.9,29.99,NNW,327,0.0,5.0,49,0.00,,,0.00,0392,Weather View 32 v70,2013-03-04 23:45:00,
2013-03-04 15:50:00,69.2,48.6,29.98,NNW,327,0.0,5.0,48,0.00,,,0.00,0134,Weather View 32 v70,2013-03-04 23:50:00,
2013-03-04 15:55:00,69.2,49.2,29.98,NW,322,0.0,4.0,49,0.00,,,0.00,0095,Weather View 32 v70,2013-03-04 23:55:00,
2013-03-04 16:00:00,68.9,48.9,29.98,NW,321,0.0,4.0,49,0.00,,,0.00,0090,Weather View 32 v70,2013-03-05 00:00:00,
2013-03-04 16:05:00,68.4,48.4,29.98,NW,321,0.0,2.0,49,0.00,,,0.00,0248,Weather View 32 v70,2013-03-05 00:05:00,
2013-03-04 16:10:00,68.0,48.1,29.98,NW,304,0.0,2.0,49,0.00,,,0.00,0323,Weather View 32 v70,2013-03-05 00:10:00,
2013-03-04 16:15:00,67.9,49.1,29.98,NW,307,0.0,4.0,51,0.00,,,0.00,0257,Weather View 32 v70,2013-03-05 00:15:00,
2013-03-04 16:20:00,67.2,48.4,29.98,NW,318,0.0,4.0,51,0.00,,,0.00,0207,Weather View 32 v70,2013-03-05 00:20:00,
2013-03-04 16:25:00,66.5,48.3,29.98,WNW,302,0.0,4.0,52,0.00,,,0.00,0070,Weather View 32 v70,2013-03-05 00:25:00,
2013-03-04 16:30:00,65.9,47.7,29.98,West,279,0.0,4.0,52,0.00,,,0.00,0095,Weather View 32 v70,2013-03-05 00:30:00,
2013-03-04 16:35:00,65.6,48.0,29.98,NW,307,0.0,4.0,53,0.00,,,0.00,0241,Weather View 32 v70,2013-03-05 00:35:00,
2013-03-04 16:40:00,65.2,47.6,29.99,NNW,333,0.0,4.0,53,0.00,,,0.00,0120,Weather View 32 v70,2013-03-05 00:40:00,
2013-03-04 16:45:00,64.5,47.9,29.99,North,355,0.0,4.0,55,0.00,,,0.00,0049,Weather View 32 v70,2013-03-05 00:45:00,
2013-03-04 16:50:00,63.7,47.7,30.00,NW,317,1.0,4.0,56,0.00,,,0.00,0053,Weather View 32 v70,2013-03-05 00:50:00,
2013-03-04 16:55:00,63.1,46.6,30.00,NW,321,0.0,4.0,55,0.00,,,0.00,0063,Weather View 32 v70,2013-03-05 00:55:00,
2013-03-04 17:00:00,62.4,46.5,30.01,NW,321,0.0,4.0,56,0.00,,,0.00,0040,Weather View 32 v70,2013-03-05 01:00:00,
2013-03-04 17:05:00,62.0,46.1,30.01,NW,320,0.0,4.0,56,0.00,,,0.00,0035,Weather View 32 v70,2013-03-05 01:05:00,
2013-03-04 17:10:00,61.5,46.1,30.01,North,355,0.0,5.0,57,0.00,,,0.00,0033,Weather View 32 v70,2013-03-05 01:10:00,
2013-03-04 17:15:00,60.7,46.3,30.02,NW,313,0.0,5.0,59,0.00,,,0.00,0030,Weather View 32 v70,2013-03-05 01:15:00,
2013-03-04 17:20:00,59.8,46.3,30.02,NNW,339,0.0,5.0,61,0.00,,,0.00,0028,Weather View 32 v70,2013-03-05 01:20:00,
2013-03-04 17:25:00,59.1,46.9,30.02,NNW,333,0.0,5.0,64,0.00,,,0.00,0025,Weather View 32 v70,2013-03-05 01:25:00,
2013-03-04 17:30:00,58.9,46.7,30.02,NW,322,0.0,5.0,64,0.00,,,0.00,0021,Weather View 32 v70,2013-03-05 01:30:00,
2013-03-04 17:35:00,58.4,46.7,30.02,NW,322,0.0,5.0,65,0.00,,,0.00,0019,Weather View 32 v70,2013-03-05 01:35:00,
2013-03-04 17:40:00,57.8,46.9,30.02,NNW,333,0.0,5.0,67,0.00,,,0.00,0014,Weather View 32 v70,2013-03-05 01:40:00,
2013-03-04 17:45:00,57.3,46.8,30.02,NNW,336,0.0,5.0,68,0.00,,,0.00,0011,Weather View 32 v70,2013-03-05 01:45:00,
2013-03-04 17:50:00,56.7,47.0,30.02,NNW,334,0.0,5.0,70,0.00,,,0.00,0009,Weather View 32 v70,2013-03-05 01:50:00,
2013-03-04 17:56:00,56.1,46.8,30.03,NW,323,0.0,5.0,71,0.00,,,0.00,0005,Weather View 32 v70,2013-03-05 01:56:00,
2013-03-04 18:01:00,55.6,47.1,30.03,NW,325,1.0,5.0,73,0.00,,,0.00,0000,Weather View 32 v70,2013-03-05 02:01:00,
2013-03-04 18:06:00,55.2,47.0,30.03,NNW,327,0.0,5.0,74,0.00,,,0.00,0000,Weather View 32 v70,2013-03-05 02:06:00,
2013-03-04 18:11:00,54.8,47.0,30.03,WNW,296,0.0,5.0,75,0.00,,,0.00,0000,Weather View 32 v70,2013-03-05 02:11:00,
2013-03-04 18:16:00,54.4,47.0,30.04,NW,309,0.0,5.0,76,0.00,,,0.00,0000,Weather View 32 v70,2013-03-05 02:16:00,
2013-03-04 18:21:00,53.9,47.2,30.04,NW,315,0.0,5.0,78,0.00,,,0.00,0000,Weather View 32 v70,2013-03-05 02:21:00,
2013-03-04 18:26:00,53.6,46.9,30.04,NW,315,0.0,5.0,78,0.00,,,0.00,0000,Weather View 32 v70,2013-03-05 02:26:00,
2013-03-04 18:31:00,53.2,46.8,30.04,NW,315,0.0,5.0,79,0.00,,,0.00,0000,Weather View 32 v70,2013-03-05 02:31:00,
2013-03-04 18:36:00,53.0,46.6,30.04,NW,315,0.0,5.0,79,0.00,,,0.00,0000,Weather View 32 v70,2013-03-05 02:36:00,
2013-03-04 18:41:00,52.6,46.6,30.05,NW,315,0.0,5.0,80,0.00,,,0.00,0000,Weather View 32 v70,2013-03-05 02:41:00,
2013-03-04 18:46:00,52.3,46.6,30.04,NW,315,0.0,5.0,81,0.00,,,0.00,0000,Weather View 32 v70,2013-03-05 02:46:00,
2013-03-04 18:51:00,52.1,46.4,30.04,NW,315,0.0,5.0,81,0.00,,,0.00,0000,Weather View 32 v70,2013-03-05 02:51:00,
2013-03-04 18:56:00,51.9,46.6,30.04,NW,315,0.0,5.0,82,0.00,,,0.00,0000,Weather View 32 v70,2013-03-05 02:56:00,
2013-03-04 19:01:00,51.8,46.5,30.04,NW,314,0.0,5.0,82,0.00,,,0.00,0000,Weather View 32 v70,2013-03-05 03:01:00,
2013-03-04 19:06:00,51.5,46.2,30.05,NW,315,0.0,5.0,82,0.00,,,0.00,0000,Weather View 32 v70,2013-03-05 03:06:00,
2013-03-04 19:11:00,51.5,46.5,30.05,ESE,104,0.0,2.0,83,0.00,,,0.00,0000,Weather View 32 v70,2013-03-05 03:11:00,
2013-03-04 19:16:00,51.5,46.8,30.05,ESE,104,0.0,2.0,84,0.00,,,0.00,0000,Weather View 32 v70,2013-03-05 03:16:00,
2013-03-04 19:21:00,51.7,47.0,30.05,ESE,103,0.0,2.0,84,0.00,,,0.00,0000,Weather View 32 v70,2013-03-05 03:21:00,
2013-03-04 19:26:00,51.6,47.2,30.05,ESE,104,0.0,2.0,85,0.00,,,0.00,0000,Weather View 32 v70,2013-03-05 03:26:00,
2013-03-04 19:31:00,51.5,46.8,30.05,ESE,104,0.0,2.0,84,0.00,,,0.00,0000,Weather View 32 v70,2013-03-05 03:31:00,
2013-03-04 19:36:00,51.4,47.0,30.05,ESE,104,0.0,2.0,85,0.00,,,0.00,0000,Weather View 32 v70,2013-03-05 03:36:00,
2013-03-04 19:41:00,51.2,46.5,30.05,ESE,104,0.0,2.0,84,0.00,,,0.00,0000,Weather View 32 v70,2013-03-05 03:41:00,
2013-03-04 19:46:00,51.2,46.8,30.06,ESE,103,0.0,2.0,85,0.00,,,0.00,0000,Weather View 32 v70,2013-03-05 03:46:00,
2013-03-04 19:51:00,51.3,46.9,30.06,ESE,103,0.0,2.0,85,0.00,,,0.00,0000,Weather View 32 v70,2013-03-05 03:51:00,
2013-03-04 19:56:00,51.2,46.8,30.06,ESE,104,0.0,2.0,85,0.00,,,0.00,0000,Weather View 32 v70,2013-03-05 03:56:00,
2013-03-04 20:01:00,50.9,46.2,30.06,ESE,104,0.0,2.0,84,0.00,,,0.00,0000,Weather View 32 v70,2013-03-05 04:01:00,
2013-03-04 20:06:00,50.6,45.6,30.06,ESE,104,0.0,2.0,83,0.00,,,0.00,0000,Weather View 32 v70,2013-03-05 04:06:00,
2013-03-04 20:11:00,50.7,45.4,30.06,ESE,104,0.0,0.0,82,0.00,,,0.00,0000,Weather View 32 v70,2013-03-05 04:11:00,
2013-03-04 20:16:00,50.7,45.4,30.07,ESE,103,0.0,0.0,82,0.00,,,0.00,0000,Weather View 32 v70,2013-03-05 04:16:00,
2013-03-04 20:21:00,50.5,45.5,30.07,ESE,104,0.0,1.0,83,0.00,,,0.00,0000,Weather View 32 v70,2013-03-05 04:21:00,
2013-03-04 20:26:00,50.6,45.9,30.07,ESE,104,0.0,1.0,84,0.00,,,0.00,0000,Weather View 32 v70,2013-03-05 04:26:00,
2013-03-04 20:31:00,50.7,46.3,30.07,ESE,104,0.0,1.0,85,0.00,,,0.00,0000,Weather View 32 v70,2013-03-05 04:31:00,
2013-03-04 20:36:00,50.6,46.2,30.07,ESE,104,0.0,1.0,85,0.00,,,0.00,0000,Weather View 32 v70,2013-03-05 04:36:00,
2013-03-04 20:41:00,50.4,45.4,30.06,ESE,104,0.0,1.0,83,0.00,,,0.00,0000,Weather View 32 v70,2013-03-05 04:41:00,
2013-03-04 20:46:00,50.6,45.9,30.06,ESE,104,0.0,1.0,84,0.00,,,0.00,0000,Weather View 32 v70,2013-03-05 04:46:00,
2013-03-04 20:51:00,50.9,45.9,30.06,ESE,103,0.0,1.0,83,0.00,,,0.00,0000,Weather View 32 v70,2013-03-05 04:51:00,
2013-03-04 20:56:00,50.4,45.4,30.06,ESE,103,0.0,1.0,83,0.00,,,0.00,0000,Weather View 32 v70,2013-03-05 04:56:00,
2013-03-04 21:00:00,50.0,45.0,30.06,ESE,104,0.0,1.0,83,0.00,,,0.00,0000,Weather View 32 v70,2013-03-05 05:00:00,
2013-03-04 21:05:00,49.9,44.9,30.06,ESE,104,0.0,1.0,83,0.00,,,0.00,0000,Weather View 32 v70,2013-03-05 05:05:00,
2013-03-04 21:10:00,50.5,45.5,30.06,ESE,104,0.0,1.0,83,0.00,,,0.00,0000,Weather View 32 v70,2013-03-05 05:10:00,
2013-03-04 21:15:00,50.8,45.5,30.06,ESE,103,0.0,1.0,82,0.00,,,0.00,0000,Weather View 32 v70,2013-03-05 05:15:00,
2013-03-04 21:20:00,50.9,45.3,30.06,ESE,103,0.0,1.0,81,0.00,,,0.00,0000,Weather View 32 v70,2013-03-05 05:20:00,
2013-03-04 21:25:00,51.0,45.0,30.07,ESE,104,0.0,1.0,80,0.00,,,0.00,0000,Weather View 32 v70,2013-03-05 05:25:00,
2013-03-04 21:30:00,51.0,44.7,30.07,ESE,104,0.0,1.0,79,0.00,,,0.00,0000,Weather View 32 v70,2013-03-05 05:30:00,
2013-03-04 21:35:00,51.2,44.9,30.07,ESE,103,0.0,1.0,79,0.00,,,0.00,0000,Weather View 32 v70,2013-03-05 05:35:00,
2013-03-04 21:40:00,51.8,45.5,30.07,ESE,103,0.0,1.0,79,0.00,,,0.00,0000,Weather View 32 v70,2013-03-05 05:40:00,
2013-03-04 21:45:00,51.6,44.6,30.07,ESE,103,0.0,1.0,77,0.00,,,0.00,0000,Weather View 32 v70,2013-03-05 05:45:00,
2013-03-04 21:50:00,51.2,44.9,30.07,ESE,103,0.0,1.0,79,0.00,,,0.00,0000,Weather View 32 v70,2013-03-05 05:50:00,
2013-03-04 21:55:00,50.3,44.0,30.06,ESE,103,0.0,1.0,79,0.00,,,0.00,0000,Weather View 32 v70,2013-03-05 05:55:00,
2013-03-04 22:00:00,49.2,43.6,30.07,ESE,103,1.0,3.0,81,0.00,,,0.00,0000,Weather View 32 v70,2013-03-05 06:00:00,
2013-03-04 22:05:00,48.7,43.8,30.07,ESE,103,0.0,3.0,83,0.00,,,0.00,0000,Weather View 32 v70,2013-03-05 06:05:00,
2013-03-04 22:10:00,48.5,43.9,30.07,ESE,103,0.0,3.0,84,0.00,,,0.00,0000,Weather View 32 v70,2013-03-05 06:10:00,
2013-03-04 22:15:00,48.4,44.1,30.07,ESE,103,0.0,3.0,85,0.00,,,0.00,0000,Weather View 32 v70,2013-03-05 06:15:00,
2013-03-04 22:20:00,48.6,44.3,30.07,ESE,103,0.0,3.0,85,0.00,,,0.00,0000,Weather View 32 v70,2013-03-05 06:20:00,
2013-03-04 22:25:00,48.9,44.3,30.07,ESE,103,0.0,3.0,84,0.00,,,0.00,0000,Weather View 32 v70,2013-03-05 06:25:00,
2013-03-04 22:30:00,49.4,44.8,30.07,ESE,103,0.0,3.0,84,0.00,,,0.00,0000,Weather View 32 v70,2013-03-05 06:30:00,
2013-03-04 22:35:00,50.1,44.8,30.07,ESE,103,0.0,3.0,82,0.00,,,0.00,0000,Weather View 32 v70,2013-03-05 06:35:00,
2013-03-04 22:40:00,50.5,44.9,30.07,ESE,103,0.0,3.0,81,0.00,,,0.00,0000,Weather View 32 v70,2013-03-05 06:40:00,
2013-03-04 22:45:00,50.8,44.8,30.07,ESE,103,0.0,3.0,80,0.00,,,0.00,0000,Weather View 32 v70,2013-03-05 06:45:00,
2013-03-04 22:50:00,51.2,44.9,30.07,ESE,103,0.0,3.0,79,0.00,,,0.00,0000,Weather View 32 v70,2013-03-05 06:50:00,
2013-03-04 22:55:00,50.1,44.2,30.07,ESE,103,0.0,3.0,80,0.00,,,0.00,0000,Weather View 32 v70,2013-03-05 06:55:00,
2013-03-04 23:00:00,49.4,43.8,30.07,ESE,103,0.0,2.0,81,0.00,,,0.00,0000,Weather View 32 v70,2013-03-05 07:00:00,
2013-03-04 23:05:00,48.6,43.3,30.06,ESE,103,0.0,2.0,82,0.00,,,0.00,0000,Weather View 32 v70,2013-03-05 07:05:00,
2013-03-04 23:10:00,48.3,43.1,30.07,ESE,103,0.0,2.0,82,0.00,,,0.00,0000,Weather View 32 v70,2013-03-05 07:10:00,
2013-03-04 23:15:00,48.0,43.1,30.07,ESE,103,0.0,1.0,83,0.00,,,0.00,0000,Weather View 32 v70,2013-03-05 07:15:00,
2013-03-04 23:20:00,48.0,43.4,30.07,ESE,103,0.0,1.0,84,0.00,,,0.00,0000,Weather View 32 v70,2013-03-05 07:20:00,
2013-03-04 23:25:00,48.0,43.4,30.07,ESE,103,0.0,1.0,84,0.00,,,0.00,0000,Weather View 32 v70,2013-03-05 07:25:00,
2013-03-04 23:30:00,47.6,43.0,30.07,ESE,103,0.0,1.0,84,0.00,,,0.00,0000,Weather View 32 v70,2013-03-05 07:30:00,
2013-03-04 23:35:00,47.5,43.2,30.07,ESE,103,0.0,1.0,85,0.00,,,0.00,0000,Weather View 32 v70,2013-03-05 07:35:00,
2013-03-04 23:40:00,47.6,43.6,30.08,ESE,103,0.0,1.0,86,0.00,,,0.00,0000,Weather View 32 v70,2013-03-05 07:40:00,
2013-03-04 23:45:00,47.7,43.7,30.08,ESE,103,0.0,1.0,86,0.00,,,0.00,0000,Weather View 32 v70,2013-03-05 07:45:00,
2013-03-04 23:50:00,48.2,44.2,30.08,ESE,103,0.0,1.0,86,0.00,,,0.00,0000,Weather View 32 v70,2013-03-05 07:50:00,
2013-03-04 23:55:00,48.3,44.6,30.08,ESE,103,0.0,1.0,87,0.00,,,0.00,0000,Weather View 32 v70,2013-03-05 07:55:00,